Darstellungsparameter: Aktuell verwendete Einstellungen:
Skalierung der Graphiken ... ?
xyx+y,   Skalierungsfaktor:      Skalierung: Modus: x, Faktor: 1
Darstellungszeitraum ... ?
Vom - - bis: - -   Zeitraum: 12.10.2020 - 12.10.2020
Min/Max/Avg-Anzeige ... ?
Zeige MMA aktuell
Zeige MMA Monat
Zeige MMA alles
Zeige --A aktuell
Zeige --A Monat
Zeige --A alles
Keine MMA-Anzeige
MMA:
Average (ber die Originaldaten)
MMA-Basis: 12.10.2020 - 12.10.2020
Quicknavigation für Darstellung... ?
Tage:      1T, 2T, 3T, 5T -1T -2T -3T -5T +1T +2T +3T +5T
Wochen: 1W, 2W, 3W -1W -2W -3W +1W +2W +3W
Monate: 1M, 3M, 6M -1M -3M -6M +1M +3M +6M
Jahre:    1J, 3J, 5J, 10J -1J -3J -5J -10J +1J +3J +5J +10J
Nutze für die Darstellung ... ?
Originaldaten oder Mittelwerte auf ...
Stundenbasis Tagesbasis Wochenbasis
Monatsbasis Jahresbasis      Datenbasis: Original-Daten
Darstellen als:
Statistik (Auto) Statistik J:M      Darstellung:
Zur Graphik,    zurück zur Übersicht aller Sensoren.
 
Tabellarische Datenbersicht: ?
 
Sensor: Nr:Datum:Temp:Abs-Feuchte:Windchill:Wind:
Aussen-T/F 1 12-10-2020 00:00:00 9.2 C 8.39 g/m*3 9.2 C 4.8 km/h
2 12-10-2020 00:05:00 9.2 C 8.39 g/m*3 9.2 C 1.6 km/h
3 12-10-2020 00:10:00 9.2 C 8.39 g/m*3 9.2 C 1.6 km/h
4 12-10-2020 00:15:00 9.2 C 8.39 g/m*3 9.2 C 1.6 km/h
5 12-10-2020 00:20:00 9.2 C 8.39 g/m*3 9.2 C 1.6 km/h
6 12-10-2020 00:25:00 9.2 C 8.39 g/m*3 9.2 C 3.2 km/h
7 12-10-2020 00:30:00 9.1 C 8.34 g/m*3 9.1 C 0 km/h
8 12-10-2020 00:35:00 9.1 C 8.34 g/m*3 9.1 C 0 km/h
9 12-10-2020 00:40:00 9 C 8.29 g/m*3 9 C 1.6 km/h
10 12-10-2020 00:45:00 9 C 8.29 g/m*3 9 C 0 km/h
11 12-10-2020 00:50:00 9.1 C 8.34 g/m*3 9.1 C 3.2 km/h
12 12-10-2020 00:55:00 9.1 C 8.34 g/m*3 9.1 C 4.8 km/h
13 12-10-2020 01:00:00 9.1 C 8.34 g/m*3 9.1 C 3.2 km/h
14 12-10-2020 01:05:00 9.1 C 8.34 g/m*3 9.1 C 3.2 km/h
15 12-10-2020 01:10:00 9.2 C 8.48 g/m*3 9.2 C 4.8 km/h
16 12-10-2020 01:15:00 9.1 C 8.34 g/m*3 9.1 C 3.2 km/h
17 12-10-2020 01:20:00 9.1 C 8.34 g/m*3 9.1 C 0 km/h
18 12-10-2020 01:25:00 9.1 C 8.34 g/m*3 9.1 C 4.8 km/h
19 12-10-2020 01:30:00 9 C 8.29 g/m*3 9 C 1.6 km/h
20 12-10-2020 01:35:00 8.9 C 8.23 g/m*3 8.9 C 0 km/h
21 12-10-2020 01:40:00 8.9 C 8.32 g/m*3 8.9 C 0 km/h
22 12-10-2020 01:45:00 8.9 C 8.32 g/m*3 8.9 C 0 km/h
23 12-10-2020 01:50:00 8.9 C 8.32 g/m*3 8.9 C 0 km/h
24 12-10-2020 01:55:00 8.9 C 8.32 g/m*3 8.9 C 1.6 km/h
25 12-10-2020 02:00:00 9 C 8.38 g/m*3 9 C 0 km/h
Sensor: Nr:Datum:Temp:Abs-Feuchte:Windchill:Wind:
Aussen-T/F 26 12-10-2020 02:05:00 9 C 8.38 g/m*3 9 C 0 km/h
27 12-10-2020 02:10:00 9.1 C 8.43 g/m*3 9.1 C 0 km/h
28 12-10-2020 02:15:00 9.1 C 8.43 g/m*3 9.1 C 0 km/h
29 12-10-2020 02:20:00 9.1 C 8.43 g/m*3 9.1 C 0 km/h
30 12-10-2020 02:25:00 9.1 C 8.43 g/m*3 9.1 C 0 km/h
31 12-10-2020 02:30:00 9.1 C 8.43 g/m*3 9.1 C 1.6 km/h
32 12-10-2020 02:35:00 9.1 C 8.43 g/m*3 9.1 C 1.6 km/h
33 12-10-2020 02:40:00 9.1 C 8.43 g/m*3 9.1 C 0 km/h
34 12-10-2020 02:45:00 9.1 C 8.43 g/m*3 9.1 C 0 km/h
35 12-10-2020 02:50:00 9.1 C 8.43 g/m*3 9.1 C 1.6 km/h
36 12-10-2020 02:55:00 9.1 C 8.43 g/m*3 9.1 C 0 km/h
37 12-10-2020 03:00:00 9.1 C 8.43 g/m*3 9.1 C 0 km/h
38 12-10-2020 03:05:00 9 C 8.38 g/m*3 9 C 0 km/h
39 12-10-2020 03:10:00 9 C 8.38 g/m*3 9 C 0 km/h
40 12-10-2020 03:15:00 9 C 8.38 g/m*3 9 C 0 km/h
41 12-10-2020 03:20:00 9 C 8.38 g/m*3 9 C 0 km/h
42 12-10-2020 03:25:00 8.9 C 8.32 g/m*3 8.9 C 0 km/h
43 12-10-2020 03:30:00 8.9 C 8.32 g/m*3 8.9 C 1.6 km/h
44 12-10-2020 03:35:00 8.9 C 8.32 g/m*3 8.9 C 0 km/h
45 12-10-2020 03:40:00 8.9 C 8.32 g/m*3 8.9 C 0 km/h
46 12-10-2020 03:45:00 8.9 C 8.32 g/m*3 8.9 C 0 km/h
47 12-10-2020 03:50:00 8.9 C 8.32 g/m*3 8.9 C 0 km/h
48 12-10-2020 03:55:00 8.9 C 8.32 g/m*3 8.9 C 0 km/h
49 12-10-2020 04:00:00 8.9 C 8.32 g/m*3 8.9 C 0 km/h
50 12-10-2020 04:05:00 8.9 C 8.32 g/m*3 8.9 C 0 km/h
Sensor: Nr:Datum:Temp:Abs-Feuchte:Windchill:Wind:
Aussen-T/F 51 12-10-2020 04:10:00 8.9 C 8.32 g/m*3 8.9 C 0 km/h
52 12-10-2020 04:15:00 8.9 C 8.32 g/m*3 8.9 C 0 km/h
53 12-10-2020 04:20:00 8.9 C 8.32 g/m*3 8.9 C 0 km/h
54 12-10-2020 04:25:00 8.9 C 8.32 g/m*3 8.9 C 1.6 km/h
55 12-10-2020 04:30:00 8.9 C 8.32 g/m*3 8.9 C 0 km/h
56 12-10-2020 04:35:00 8.9 C 8.32 g/m*3 8.9 C 0 km/h
57 12-10-2020 04:40:00 8.9 C 8.32 g/m*3 8.9 C 1.6 km/h
58 12-10-2020 04:45:00 8.9 C 8.32 g/m*3 8.9 C 0 km/h
59 12-10-2020 04:50:00 8.9 C 8.32 g/m*3 8.9 C 0 km/h
60 12-10-2020 04:55:00 8.9 C 8.32 g/m*3 8.9 C 0 km/h
61 12-10-2020 05:00:00 8.9 C 8.32 g/m*3 8.9 C 0 km/h
62 12-10-2020 05:05:00 8.9 C 8.32 g/m*3 8.9 C 1.6 km/h
63 12-10-2020 05:10:00 8.9 C 8.32 g/m*3 8.9 C 0 km/h
64 12-10-2020 05:15:00 8.9 C 8.32 g/m*3 8.9 C 0 km/h
65 12-10-2020 05:20:00 8.9 C 8.32 g/m*3 8.9 C 0 km/h
66 12-10-2020 05:25:00 8.9 C 8.32 g/m*3 8.9 C 0 km/h
67 12-10-2020 05:30:00 8.9 C 8.32 g/m*3 8.9 C 0 km/h
68 12-10-2020 05:35:00 8.9 C 8.32 g/m*3 8.9 C 0 km/h
69 12-10-2020 05:40:00 8.9 C 8.32 g/m*3 8.9 C 0 km/h
70 12-10-2020 05:45:00 8.9 C 8.32 g/m*3 8.9 C 3.2 km/h
71 12-10-2020 05:50:00 8.9 C 8.32 g/m*3 8.9 C 3.2 km/h
72 12-10-2020 05:55:00 8.8 C 8.27 g/m*3 8.8 C 1.6 km/h
73 12-10-2020 06:00:00 8.8 C 8.27 g/m*3 8.8 C 1.6 km/h
74 12-10-2020 06:05:00 8.8 C 8.27 g/m*3 8.8 C 1.6 km/h
75 12-10-2020 06:10:00 8.8 C 8.27 g/m*3 7.98 C 6.4 km/h
Sensor: Nr:Datum:Temp:Abs-Feuchte:Windchill:Wind:
Aussen-T/F 76 12-10-2020 06:15:00 8.8 C 8.27 g/m*3 8.8 C 1.6 km/h
77 12-10-2020 06:20:00 8.7 C 8.22 g/m*3 8.7 C 0 km/h
78 12-10-2020 06:25:00 8.7 C 8.22 g/m*3 8.7 C 0 km/h
79 12-10-2020 06:30:00 8.6 C 8.16 g/m*3 8.6 C 1.6 km/h
80 12-10-2020 06:35:00 8.6 C 8.16 g/m*3 8.6 C 0 km/h
81 12-10-2020 06:40:00 8.6 C 8.16 g/m*3 8.6 C 1.6 km/h
82 12-10-2020 06:45:00 8.6 C 8.16 g/m*3 8.6 C 0 km/h
83 12-10-2020 06:50:00 8.6 C 8.16 g/m*3 8.6 C 3.2 km/h
84 12-10-2020 06:55:00 8.7 C 8.22 g/m*3 8.7 C 1.6 km/h
85 12-10-2020 07:00:00 8.7 C 8.22 g/m*3 8.7 C 3.2 km/h
86 12-10-2020 07:05:00 8.7 C 8.22 g/m*3 8.7 C 3.2 km/h
87 12-10-2020 07:10:00 8.7 C 8.22 g/m*3 8.7 C 0 km/h
88 12-10-2020 07:15:00 8.7 C 8.22 g/m*3 8.7 C 0 km/h
89 12-10-2020 07:20:00 8.7 C 8.22 g/m*3 8.7 C 0 km/h
90 12-10-2020 07:25:00 8.7 C 8.22 g/m*3 8.7 C 0 km/h
91 12-10-2020 07:30:00 8.7 C 8.3 g/m*3 8.7 C 0 km/h
92 12-10-2020 07:35:00 8.8 C 8.36 g/m*3 8.8 C 0 km/h
93 12-10-2020 07:40:00 8.7 C 8.3 g/m*3 8.7 C 1.6 km/h
94 12-10-2020 07:45:00 8.7 C 8.22 g/m*3 8.7 C 4.8 km/h
95 12-10-2020 07:50:00 8.7 C 8.22 g/m*3 8.7 C 0 km/h
96 12-10-2020 07:55:00 8.8 C 8.27 g/m*3 8.8 C 0 km/h
97 12-10-2020 08:00:00 8.8 C 8.27 g/m*3 8.8 C 3.2 km/h
98 12-10-2020 08:05:00 8.8 C 8.27 g/m*3 8.8 C 0 km/h
99 12-10-2020 08:10:00 8.8 C 8.27 g/m*3 8.8 C 0 km/h
100 12-10-2020 08:15:00 8.8 C 8.27 g/m*3 8.8 C 0 km/h
Sensor: Nr:Datum:Temp:Abs-Feuchte:Windchill:Wind:
Aussen-T/F 101 12-10-2020 08:20:00 8.8 C 8.27 g/m*3 8.8 C 0 km/h
102 12-10-2020 08:25:00 8.8 C 8.27 g/m*3 8.8 C 0 km/h
103 12-10-2020 08:30:00 8.8 C 8.36 g/m*3 8.8 C 1.6 km/h
104 12-10-2020 08:35:00 8.8 C 8.27 g/m*3 8.8 C 1.6 km/h
105 12-10-2020 08:40:00 8.8 C 8.27 g/m*3 8.8 C 1.6 km/h
106 12-10-2020 08:45:00 8.8 C 8.27 g/m*3 8.8 C 0 km/h
107 12-10-2020 08:50:00 8.8 C 8.27 g/m*3 8.8 C 0 km/h
108 12-10-2020 08:55:00 8.9 C 8.32 g/m*3 8.9 C 0 km/h
109 12-10-2020 09:00:00 8.9 C 8.32 g/m*3 8.9 C 0 km/h
110 12-10-2020 09:05:00 8.9 C 8.32 g/m*3 8.9 C 0 km/h
111 12-10-2020 09:10:00 9 C 8.38 g/m*3 9 C 0 km/h
112 12-10-2020 09:15:00 9.1 C 8.43 g/m*3 9.1 C 0 km/h
113 12-10-2020 09:20:00 9.1 C 8.52 g/m*3 9.1 C 0 km/h
114 12-10-2020 09:25:00 9.2 C 8.57 g/m*3 9.2 C 0 km/h
115 12-10-2020 09:30:00 9.2 C 8.57 g/m*3 9.2 C 1.6 km/h
116 12-10-2020 09:35:00 9.3 C 8.63 g/m*3 9.3 C 0 km/h
117 12-10-2020 09:40:00 9.3 C 8.54 g/m*3 9.3 C 3.2 km/h
118 12-10-2020 09:45:00 9.3 C 8.54 g/m*3 9.3 C 3.2 km/h
119 12-10-2020 09:50:00 9.3 C 8.54 g/m*3 9.3 C 0 km/h
120 12-10-2020 09:55:00 9.4 C 8.59 g/m*3 9.4 C 1.6 km/h
121 12-10-2020 10:00:00 9.4 C 8.59 g/m*3 8.68 C 6.4 km/h
122 12-10-2020 10:05:00 9.3 C 8.54 g/m*3 8.56 C 6.4 km/h
123 12-10-2020 10:10:00 9.3 C 8.54 g/m*3 9.3 C 3.2 km/h
124 12-10-2020 10:15:00 9.3 C 8.54 g/m*3 8.56 C 6.4 km/h
125 12-10-2020 10:20:00 9.4 C 8.59 g/m*3 9.4 C 4.8 km/h
Sensor: Nr:Datum:Temp:Abs-Feuchte:Windchill:Wind:
Aussen-T/F 126 12-10-2020 10:25:00 9.6 C 8.7 g/m*3 9.6 C 3.2 km/h
127 12-10-2020 10:30:00 9.7 C 8.76 g/m*3 9.7 C 4.8 km/h
128 12-10-2020 10:35:00 9.8 C 8.72 g/m*3 9.8 C 4.8 km/h
129 12-10-2020 10:40:00 9.8 C 8.72 g/m*3 9.14 C 6.4 km/h
130 12-10-2020 10:45:00 9.9 C 8.78 g/m*3 9.9 C 3.2 km/h
131 12-10-2020 10:50:00 10.1 C 8.89 g/m*3 10.1 C 1.6 km/h
132 12-10-2020 10:55:00 10.1 C 8.89 g/m*3 10.1 C 3.2 km/h
133 12-10-2020 11:00:00 10.2 C 8.85 g/m*3 10.2 C 3.2 km/h
134 12-10-2020 11:05:00 10.3 C 8.91 g/m*3 10.3 C 4.8 km/h
135 12-10-2020 11:10:00 10.3 C 8.91 g/m*3 10.3 C 3.2 km/h
136 12-10-2020 11:15:00 10.4 C 8.87 g/m*3 10.4 C 4.8 km/h
137 12-10-2020 11:20:00 10.5 C 8.92 g/m*3 10.5 C 3.2 km/h
138 12-10-2020 11:25:00 10.5 C 8.83 g/m*3 10.5 C 0 km/h
139 12-10-2020 11:30:00 10.6 C 8.88 g/m*3 10.6 C 3.2 km/h
140 12-10-2020 11:35:00 10.7 C 8.94 g/m*3 10.7 C 3.2 km/h
141 12-10-2020 11:40:00 10.9 C 9.05 g/m*3 10.9 C 1.6 km/h
142 12-10-2020 11:45:00 11.2 C 9.12 g/m*3 11.2 C 6.4 km/h
143 12-10-2020 11:50:00 11.3 C 9.08 g/m*3 11.3 C 1.6 km/h
144 12-10-2020 11:55:00 11.3 C 9.08 g/m*3 11.3 C 1.6 km/h
145 12-10-2020 12:00:00 11.4 C 9.03 g/m*3 11.4 C 3.2 km/h
146 12-10-2020 12:05:00 11.3 C 8.87 g/m*3 11.3 C 4.8 km/h
147 12-10-2020 12:10:00 11.3 C 8.87 g/m*3 11.3 C 0 km/h
148 12-10-2020 12:15:00 11.4 C 8.93 g/m*3 11.4 C 0 km/h
149 12-10-2020 12:20:00 11.5 C 8.99 g/m*3 11.5 C 3.2 km/h
150 12-10-2020 12:25:00 11.6 C 9.04 g/m*3 11.6 C 4.8 km/h
Sensor: Nr:Datum:Temp:Abs-Feuchte:Windchill:Wind:
Aussen-T/F 151 12-10-2020 12:30:00 11.6 C 9.04 g/m*3 11.6 C 4.8 km/h
152 12-10-2020 12:35:00 11.7 C 9.1 g/m*3 11.7 C 4.8 km/h
153 12-10-2020 12:40:00 11.7 C 8.89 g/m*3 11.7 C 4.8 km/h
154 12-10-2020 12:45:00 11.8 C 9.05 g/m*3 11.8 C 1.6 km/h
155 12-10-2020 12:50:00 12.1 C 9.01 g/m*3 12.1 C 6.4 km/h
156 12-10-2020 12:55:00 12.2 C 9.06 g/m*3 12.2 C 1.6 km/h
157 12-10-2020 13:00:00 12.3 C 9.01 g/m*3 12.3 C 8.1 km/h
158 12-10-2020 13:05:00 12.4 C 9.07 g/m*3 12.4 C 4.8 km/h
159 12-10-2020 13:10:00 12.4 C 9.07 g/m*3 12.4 C 6.4 km/h
160 12-10-2020 13:15:00 12.3 C 8.8 g/m*3 12.3 C 8.1 km/h
161 12-10-2020 13:20:00 12.4 C 8.96 g/m*3 12.4 C 6.4 km/h
162 12-10-2020 13:25:00 12.3 C 8.69 g/m*3 12.3 C 8.1 km/h
163 12-10-2020 13:30:00 12.3 C 8.8 g/m*3 12.3 C 4.8 km/h
164 12-10-2020 13:35:00 12.2 C 8.74 g/m*3 12.2 C 8.1 km/h
165 12-10-2020 13:40:00 12.2 C 8.85 g/m*3 12.2 C 8.1 km/h
166 12-10-2020 13:45:00 12.2 C 8.96 g/m*3 12.2 C 4.8 km/h
167 12-10-2020 13:50:00 12.2 C 8.96 g/m*3 12.2 C 3.2 km/h
168 12-10-2020 13:55:00 12.2 C 8.96 g/m*3 12.2 C 4.8 km/h
169 12-10-2020 14:00:00 12.2 C 8.85 g/m*3 12.2 C 8.1 km/h
170 12-10-2020 14:05:00 12.3 C 8.9 g/m*3 12.3 C 9.7 km/h
171 12-10-2020 14:10:00 12.3 C 8.9 g/m*3 12.3 C 11.3 km/h
172 12-10-2020 14:15:00 12.3 C 9.01 g/m*3 12.3 C 6.4 km/h
173 12-10-2020 14:20:00 12.2 C 8.85 g/m*3 12.2 C 4.8 km/h
174 12-10-2020 14:25:00 12.2 C 9.06 g/m*3 12.2 C 6.4 km/h
175 12-10-2020 14:30:00 12.2 C 9.06 g/m*3 12.2 C 3.2 km/h
Sensor: Nr:Datum:Temp:Abs-Feuchte:Windchill:Wind:
Aussen-T/F 176 12-10-2020 14:35:00 12.2 C 8.96 g/m*3 12.2 C 4.8 km/h
177 12-10-2020 14:40:00 12.2 C 9.06 g/m*3 12.2 C 8.1 km/h
178 12-10-2020 14:45:00 12.2 C 9.06 g/m*3 12.2 C 3.2 km/h
179 12-10-2020 14:50:00 12.3 C 9.12 g/m*3 12.3 C 3.2 km/h
180 12-10-2020 14:55:00 12.3 C 9.01 g/m*3 12.3 C 9.7 km/h
181 12-10-2020 15:00:00 12.3 C 9.01 g/m*3 12.3 C 1.6 km/h
182 12-10-2020 15:05:00 12.4 C 8.85 g/m*3 12.4 C 9.7 km/h
183 12-10-2020 15:10:00 12.4 C 8.85 g/m*3 12.4 C 4.8 km/h
184 12-10-2020 15:15:00 12.5 C 8.91 g/m*3 12.5 C 6.4 km/h
185 12-10-2020 15:20:00 12.7 C 9.13 g/m*3 12.7 C 4.8 km/h
186 12-10-2020 15:25:00 12.7 C 8.79 g/m*3 12.7 C 9.7 km/h
187 12-10-2020 15:30:00 12.7 C 8.91 g/m*3 12.7 C 12.9 km/h
188 12-10-2020 15:35:00 12.4 C 8.74 g/m*3 12.4 C 14.5 km/h
189 12-10-2020 15:40:00 11.9 C 8.58 g/m*3 11.9 C 16.1 km/h
190 12-10-2020 15:45:00 11.6 C 8.63 g/m*3 11.6 C 4.8 km/h
191 12-10-2020 15:50:00 11.4 C 8.83 g/m*3 11.4 C 6.4 km/h
192 12-10-2020 15:55:00 11.3 C 8.77 g/m*3 11.3 C 8.1 km/h
193 12-10-2020 16:00:00 11.1 C 8.76 g/m*3 11.1 C 4.8 km/h
194 12-10-2020 16:05:00 10.9 C 8.65 g/m*3 10.9 C 1.6 km/h
195 12-10-2020 16:10:00 10.9 C 8.75 g/m*3 10.9 C 1.6 km/h
196 12-10-2020 16:15:00 10.9 C 8.95 g/m*3 10.41 C 6.4 km/h
197 12-10-2020 16:20:00 11 C 9.01 g/m*3 11 C 3.2 km/h
198 12-10-2020 16:25:00 10.9 C 8.85 g/m*3 10.9 C 4.8 km/h
199 12-10-2020 16:30:00 10.9 C 8.95 g/m*3 10.9 C 3.2 km/h
200 12-10-2020 16:35:00 11.1 C 9.17 g/m*3 11.1 C 1.6 km/h
Sensor: Nr:Datum:Temp:Abs-Feuchte:Windchill:Wind:
Aussen-T/F 201 12-10-2020 16:40:00 11.2 C 9.22 g/m*3 11.2 C 1.6 km/h
202 12-10-2020 16:45:00 11.2 C 9.22 g/m*3 11.2 C 0 km/h
203 12-10-2020 16:50:00 11.3 C 9.28 g/m*3 11.3 C 0 km/h
204 12-10-2020 16:55:00 11.4 C 9.24 g/m*3 11.4 C 1.6 km/h
205 12-10-2020 17:00:00 11.3 C 8.98 g/m*3 11.3 C 0 km/h
206 12-10-2020 17:05:00 11.4 C 9.14 g/m*3 11.4 C 3.2 km/h
207 12-10-2020 17:10:00 11.6 C 9.25 g/m*3 11.6 C 1.6 km/h
208 12-10-2020 17:15:00 11.6 C 9.15 g/m*3 11.6 C 0 km/h
209 12-10-2020 17:20:00 11.7 C 9.2 g/m*3 11.7 C 4.8 km/h
210 12-10-2020 17:25:00 11.7 C 8.79 g/m*3 11.7 C 4.8 km/h
211 12-10-2020 17:30:00 11.8 C 8.95 g/m*3 11.8 C 0 km/h
212 12-10-2020 17:35:00 12 C 9.17 g/m*3 12 C 0 km/h
213 12-10-2020 17:40:00 12.2 C 9.28 g/m*3 12.2 C 0 km/h
214 12-10-2020 17:45:00 12.2 C 9.17 g/m*3 12.2 C 1.6 km/h
215 12-10-2020 17:50:00 12.1 C 9.12 g/m*3 12.1 C 1.6 km/h
216 12-10-2020 17:55:00 11.9 C 9 g/m*3 11.9 C 1.6 km/h
217 12-10-2020 18:00:00 11.8 C 8.95 g/m*3 11.8 C 3.2 km/h
218 12-10-2020 18:05:00 11.7 C 8.89 g/m*3 11.7 C 1.6 km/h
219 12-10-2020 18:10:00 11.4 C 8.72 g/m*3 11.4 C 3.2 km/h
220 12-10-2020 18:15:00 11.3 C 8.67 g/m*3 11.3 C 6.4 km/h
221 12-10-2020 18:20:00 11.1 C 8.66 g/m*3 11.1 C 6.4 km/h
222 12-10-2020 18:25:00 10.9 C 8.55 g/m*3 10.41 C 6.4 km/h
223 12-10-2020 18:30:00 10.6 C 8.3 g/m*3 9.69 C 8.1 km/h
224 12-10-2020 18:35:00 10.3 C 8.24 g/m*3 10.3 C 3.2 km/h
225 12-10-2020 18:40:00 10.1 C 8.13 g/m*3 10.1 C 4.8 km/h
Sensor: Nr:Datum:Temp:Abs-Feuchte:Windchill:Wind:
Aussen-T/F 226 12-10-2020 18:45:00 9.8 C 8.07 g/m*3 9.14 C 6.4 km/h
227 12-10-2020 18:50:00 9.6 C 8.06 g/m*3 9.6 C 4.8 km/h
228 12-10-2020 18:55:00 9.4 C 7.96 g/m*3 9.4 C 0 km/h
229 12-10-2020 19:00:00 9.3 C 7.91 g/m*3 9.3 C 1.6 km/h
230 12-10-2020 19:05:00 9.1 C 7.9 g/m*3 9.1 C 1.6 km/h
231 12-10-2020 19:10:00 8.9 C 7.8 g/m*3 8.9 C 3.2 km/h
232 12-10-2020 19:15:00 8.7 C 7.7 g/m*3 8.7 C 1.6 km/h
233 12-10-2020 19:20:00 8.5 C 7.6 g/m*3 8.5 C 1.6 km/h
234 12-10-2020 19:25:00 8.3 C 7.5 g/m*3 8.3 C 4.8 km/h
235 12-10-2020 19:30:00 8.1 C 7.49 g/m*3 8.1 C 3.2 km/h
236 12-10-2020 19:35:00 8 C 7.44 g/m*3 8 C 0 km/h
237 12-10-2020 19:40:00 7.8 C 7.35 g/m*3 7.8 C 3.2 km/h
238 12-10-2020 19:45:00 7.7 C 7.3 g/m*3 7.7 C 1.6 km/h
239 12-10-2020 19:50:00 7.6 C 7.33 g/m*3 7.6 C 1.6 km/h
240 12-10-2020 19:55:00 7.6 C 7.33 g/m*3 7.6 C 0 km/h
241 12-10-2020 20:00:00 7.5 C 7.28 g/m*3 7.5 C 0 km/h
242 12-10-2020 20:05:00 7.4 C 7.24 g/m*3 7.4 C 0 km/h
243 12-10-2020 20:10:00 7.3 C 7.27 g/m*3 7.3 C 0 km/h
244 12-10-2020 20:15:00 7.3 C 7.27 g/m*3 7.3 C 0 km/h
245 12-10-2020 20:20:00 7.2 C 7.22 g/m*3 7.2 C 0 km/h
246 12-10-2020 20:25:00 7.2 C 7.22 g/m*3 7.2 C 0 km/h
247 12-10-2020 20:30:00 7.1 C 7.18 g/m*3 7.1 C 0 km/h
248 12-10-2020 20:35:00 7 C 7.13 g/m*3 7 C 0 km/h
249 12-10-2020 20:40:00 6.9 C 7.08 g/m*3 6.9 C 0 km/h
250 12-10-2020 20:45:00 6.9 C 7.16 g/m*3 6.9 C 0 km/h
Sensor: Nr:Datum:Temp:Abs-Feuchte:Windchill:Wind:
Aussen-T/F 251 12-10-2020 20:50:00 6.8 C 7.11 g/m*3 6.8 C 0 km/h
252 12-10-2020 20:55:00 6.7 C 7.07 g/m*3 6.7 C 0 km/h
253 12-10-2020 21:00:00 6.7 C 7.07 g/m*3 6.7 C 0 km/h
254 12-10-2020 21:05:00 6.7 C 7.07 g/m*3 6.7 C 1.6 km/h
255 12-10-2020 21:10:00 6.6 C 7.02 g/m*3 6.6 C 1.6 km/h
256 12-10-2020 21:15:00 6.6 C 7.1 g/m*3 6.6 C 1.6 km/h
257 12-10-2020 21:20:00 6.6 C 7.02 g/m*3 6.6 C 0 km/h
258 12-10-2020 21:25:00 6.5 C 7.05 g/m*3 6.5 C 0 km/h
259 12-10-2020 21:30:00 6.5 C 7.05 g/m*3 6.5 C 0 km/h
260 12-10-2020 21:35:00 6.5 C 7.05 g/m*3 6.5 C 0 km/h
261 12-10-2020 21:40:00 6.5 C 7.05 g/m*3 6.5 C 0 km/h
262 12-10-2020 21:45:00 6.5 C 7.05 g/m*3 6.5 C 1.6 km/h
263 12-10-2020 21:50:00 6.5 C 7.05 g/m*3 6.5 C 0 km/h
264 12-10-2020 21:55:00 6.4 C 7 g/m*3 6.4 C 0 km/h
265 12-10-2020 22:00:00 6.3 C 6.96 g/m*3 6.3 C 0 km/h
266 12-10-2020 22:05:00 6.3 C 6.96 g/m*3 6.3 C 0 km/h
267 12-10-2020 22:10:00 6.2 C 6.91 g/m*3 6.2 C 0 km/h
268 12-10-2020 22:15:00 6.2 C 6.91 g/m*3 6.2 C 1.6 km/h
269 12-10-2020 22:20:00 6.2 C 6.99 g/m*3 6.2 C 0 km/h
270 12-10-2020 22:25:00 6.3 C 7.03 g/m*3 6.3 C 0 km/h
271 12-10-2020 22:30:00 6.3 C 7.03 g/m*3 6.3 C 0 km/h
272 12-10-2020 22:35:00 6.4 C 7.08 g/m*3 6.4 C 0 km/h
273 12-10-2020 22:40:00 6.4 C 7.08 g/m*3 6.4 C 0 km/h
274 12-10-2020 22:45:00 6.5 C 7.12 g/m*3 6.5 C 0 km/h
275 12-10-2020 22:50:00 6.5 C 7.12 g/m*3 6.5 C 0 km/h
Sensor: Nr:Datum:Temp:Abs-Feuchte:Windchill:Wind:
Aussen-T/F 276 12-10-2020 22:55:00 6.4 C 7.08 g/m*3 6.4 C 0 km/h
277 12-10-2020 23:00:00 6.4 C 7.08 g/m*3 6.4 C 0 km/h
278 12-10-2020 23:05:00 6.3 C 7.03 g/m*3 6.3 C 0 km/h
279 12-10-2020 23:10:00 6.2 C 6.99 g/m*3 6.2 C 0 km/h
280 12-10-2020 23:15:00 6.1 C 6.87 g/m*3 6.1 C 0 km/h
281 12-10-2020 23:20:00 5.9 C 6.85 g/m*3 5.9 C 0 km/h
282 12-10-2020 23:25:00 5.9 C 6.85 g/m*3 5.9 C 0 km/h
283 12-10-2020 23:30:00 5.8 C 6.81 g/m*3 5.8 C 0 km/h
284 12-10-2020 23:35:00 5.8 C 6.81 g/m*3 5.8 C 0 km/h
285 12-10-2020 23:40:00 5.8 C 6.81 g/m*3 5.8 C 0 km/h
286 12-10-2020 23:45:00 5.7 C 6.76 g/m*3 5.7 C 0 km/h
287 12-10-2020 23:50:00 5.7 C 6.76 g/m*3 5.7 C 0 km/h
288 12-10-2020 23:55:00 5.7 C 6.76 g/m*3 5.7 C 0 km/h

Legende:
   Min
   Max


Maximal/Minimal-Werte vom 12.10.2020 - 12.10.2020

Sensor Min Max Avg
Temp
(Aussen-T/F)
5.7 °C
12-10-2020  23:45:00
12.7 °C
12-10-2020  15:20:00
9.41 °C
Abs-Feuchte
(Aussen-T/F)
6.76 g/m*3
12-10-2020  23:45:00
9.28 g/m*3
12-10-2020  16:50:00
8.26 g/m*3
Windchill
(Aussen-T/F)
5.7 C
12-10-2020  23:45:00
12.7 C
12-10-2020  15:20:00
9.35 C

Die Daten stammen von einer Davis Vantage Pro 2 Wetter-Station und werden unter Linux mit der Software wview2wettercgi und aufbereitet. Alle Angaben erfolgen ohne Gewähr für ihre Vollständigkeit oder Richtigkeit.
Kontakt: Rainer Krienke krienke@uni-koblenz.de . Meine Webseiten an der Uni Koblenz oder privat.
Version: $Revision: 0.78 $